This is the latest recevied weather packets stored in our database for station/object CA4LJZ-10. If no packets are shown the sender has not sent any weather packets the latest 10 day(s).
| Time | Temp. | Humidity | Pressure | Rain* | Wind** | Luminosity | Snow |
|---|---|---|---|---|---|---|---|
| 1778032871 | 16.11° C | 58% | 953.1 hPa | - | - | - | - |
| 1778031970 | 16.11° C | 57% | 952.9 hPa | - | - | - | - |
| 1778031069 | 16.67° C | 56% | 952.9 hPa | - | - | - | - |
| 1778030168 | 17.22° C | 53% | 952.7 hPa | - | - | - | - |
| 1778029267 | 17.78° C | 51% | 952.5 hPa | - | - | - | - |
| 1778028366 | 18.33° C | 48% | 953 hPa | - | - | - | - |
| 1778027465 | 18.89° C | 47% | 953 hPa | - | - | - | - |
| 1778026565 | 18.89° C | 46% | 952.7 hPa | - | - | - | - |
| 1778025663 | 18.89° C | 48% | 952.7 hPa | - | - | - | - |
| 1778024762 | 18.89° C | 45% | 952.4 hPa | - | - | - | - |
| 1778023861 | 19.44° C | 44% | 952.3 hPa | - | - | - | - |
| 1778022960 | 19.44° C | 44% | 952 hPa | - | - | - | - |
| 1778022060 | 19.44° C | 43% | 951.9 hPa | - | - | - | - |
| 1778021159 | 19.44° C | 43% | 951.8 hPa | - | - | - | - |
| 1778020258 | 20° C | 42% | 951.7 hPa | - | - | - | - |
| 1778019357 | 20° C | 44% | 951.5 hPa | - | - | - | - |
| 1778018456 | 20° C | 43% | 951.5 hPa | - | - | - | - |
| 1778017555 | 20.56° C | 43% | 951.1 hPa | - | - | - | - |
| 1778016654 | 20.56° C | 42% | 951 hPa | - | - | - | - |
| 1778015753 | 21.11° C | 40% | 950.9 hPa | - | - | - | - |
| 1778014853 | 21.11° C | 39% | 950.5 hPa | - | - | - | - |
| 1778013952 | 21.11° C | 38% | 950.5 hPa | - | - | - | - |
| 1778013050 | 22.78° C | 39% | 950.7 hPa | - | - | - | - |
| 1778012182 | 21.67° C | 38% | 950.6 hPa | - | - | - | - |
| 1778011281 | 21.67° C | 36% | 950.7 hPa | - | - | - | - |
* Rain since midnight (hover to see other rain measurements)
** Current wind speed in m/s (hover to see current wind gust speed)